User: anonymous   Login
Location: Bruch
(44.2051°N, 0.4120°E)
Time: 16:14:09
(UTC+00:00)
Language:

Cosmos 372 Rocket - Orbit

View from above orbital plane
View from above orbital plane
View from above satellite
View from above satellite

Ground track
Ground track

The orbit data is extracted from the following two-line orbital elements,

1  4589U 70086B   21059.15987982  .00000049  00000-0  23068-4 0  9999
2  4589  74.0624 337.3321 0021531 214.2300 145.7469 14.41628007642109
Epoch (UTC): 28 February 2021 03:50:13
Eccentricity: 0.0021531
inclination: 74.0624°
perigee height: 738 km
apogee height: 768 km
right ascension of ascending node: 337.3321°
argument of perigee: 214.2300°
revolutions per day: 14.41628007
mean anomaly at epoch: 145.7469°
orbit number at epoch: 64210

The dashed part of the orbit path shows where the satellite is in the earth's shadow,  

DLR